{"data":{"norad_id":64026,"intl_designator":"2025-102E","name":"STARLINK-33992","alt_names":[],"object_type":"PAYLOAD","status":"ACTIVE","operator":null,"country":"US","launch_date":"2025-05-16","launch_site_code":"AFWTR","launch_vehicle":null,"mission":null,"orbit_class":"UNKNOWN","rcs_meters":null,"size_class":null,"mass_kg":null,"dimensions":null,"purposes":["comms"],"wikipedia_slug":null,"has_3d_model":false,"image_url":null,"decayed_at":null,"tle_current":{"epoch":"2026-09-20T22:08:36.348288Z","epoch_age_seconds":107093,"freshness":"FRESH","line1":"1 64026U 25102E   26263.92264292  .00009264  00000+0  32622-3 0  9991","line2":"2 64026  70.0009 339.9132 0003574 272.0661  88.0105 15.29588912 75340","mean_motion":15.29588912,"eccentricity":0.0003574,"inclination_deg":70.0009,"raan_deg":339.9132,"arg_perigee_deg":272.0661,"mean_anomaly_deg":88.0105,"bstar":0.00032622,"rev_number":7534,"period_min":94.142941852078,"perigee_km":474.59023510918,"apogee_km":479.49031582569,"semimajor_km":6855.1772754674,"source":"CELESTRAK","updated_at":"2026-09-21T09:00:35.186458Z"}}}